Home > Time Zones > World Clock > Weather > India > Pali > Past weeks

Flag Weather past 2 weeks in Pali, Rajasthan, India

Now
72 °F

Passing clouds.


Feels Like: 76 °F
Forecast: 64 / 85 °F
Wind: 5 mph from Northeast

Location: Jaipur / Sanganer

Current Time: Nov 23, 2014 at 10:50:07 PM

Latest Report: Nov 23, 2014 at 10:00 PM


Visibility: 1 mi

Pressure: 30.01 "Hg

Humidity: 31%

Dew point: 39 °F

Location of PaliLocation

Historic Weather in Pali — Graph

°F

Pali temperature yesterday

Maximum temperature yesterday: 84 °F (at 2:00 PM)
Minimum temperature yesterday: 57 °F (at 7:00 AM)
Average temperature yesterday: 71 °F

Past Weeks' High & Low Weather Summary

 TemperatureHumidityPressure
High88 °F (Nov 9, 1:00 PM)64% (Nov 9, 5:00 AM)30.15 "Hg (Nov 9, 5:00 AM)
Low54 °F (Nov 16, 5:30 AM)8% (Nov 15, 4:00 PM)29.89 "Hg (Nov 22, 3:00 PM)
Average72 °F36%30.03 "Hg
* Reported Nov 8 10:00 PM — Nov 23 9:30 PM, Pali, Weather by CustomWeather, © 2014

Note: Actual official high and low records may vary slightly from our data, if they occured in-between our weather recording intervals... More about our weather records

Advertising

Pali weather history for previous 24 hours

 ConditionsComfort  
Time TempWeatherWind HumidityBarometerVisibility
9:30 PM
Nov 23
72 °FPassing clouds.6 mph31%30.01 "Hg1 mi
9:00 PM72 °FHaze.5 mph29%30.01 "Hg1 mi
7:00 PM72 °FHaze.No wind36%29.98 "Hg1 mi
6:00 PM77 °FHaze.2 mph22%29.95 "Hg1 mi
5:00 PM81 °FHaze.2 mph20%29.95 "Hg1 mi
4:00 PM82 °FHaze.7 mph17%29.95 "Hg1 mi
3:00 PM84 °FHaze.5 mph18%29.95 "Hg1 mi
2:00 PM84 °FHaze.3 mph18%29.98 "Hg1 mi
1:00 PM84 °FHaze.3 mph18%30.01 "Hg1 mi
12:00 PM81 °FHaze.3 mph26%30.04 "Hg1 mi
11:00 AM79 °FHaze.6 mph26%30.07 "Hg1 mi
10:00 AM73 °FHaze.8 mph31%30.07 "Hg1 mi
9:00 AM72 °FHaze.7 mph33%30.04 "Hg1 mi
8:00 AM66 °FHaze.No wind40%30.01 "Hg1 mi
7:00 AM63 °FHaze.No wind49%30.01 "Hg1 mi
6:00 AM64 °FHaze.No wind46%29.98 "Hg1 mi
5:00 AM63 °FHaze.No wind52%29.98 "Hg1 mi
4:00 AM61 °FHaze.No wind55%29.95 "Hg1 mi
3:00 AM61 °FHaze.No wind55%29.98 "Hg1 mi
2:00 AM64 °FHaze.No wind46%29.98 "Hg1 mi
1:00 AM64 °FHaze.No wind46%29.98 "Hg1 mi
12:00 AM63 °FHaze.No wind52%29.98 "Hg1 mi
11:00 PM
Nov 22
64 °FHaze.No wind52%29.98 "Hg1 mi
10:00 PM66 °FHaze.No wind49%29.98 "Hg1 mi
Weather by CustomWeather, © 2014

See weather overviewHow to use our weather pages